Flag for Canada Weather past 2 weeks in Charlottetown, Pr.Edward I, Canada

Now
52 °F

Sprinkles. Mostly cloudy.


Feels Like: 46 °F
Forecast: 51 / 57 °F
Wind: 20 mph from Northeast

Location: Charlottetown

Current Time: Oct 24, 2014 at 10:07:48 AM

Latest Report: Oct 24, 2014 at 9:00 AM


Visibility: 10 mi

Pressure: 29.65 "Hg

Humidity: 94%

Dew point: 50 °F

Location of CharlottetownLocation

Historic Weather in Charlottetown — Graph

°F

Charlottetown temperature yesterday

Maximum temperature yesterday: 57 °F (at 12:00 PM)
Minimum temperature yesterday: 48 °F (at 12:00 AM)
Average temperature yesterday: 52 °F

Past Weeks' High & Low Weather Summary

 TemperatureHumidityPressure
High68 °F (Oct 15, 4:00 PM)100% (Oct 16, 11:00 AM)30.41 "Hg (Oct 16, 11:00 AM)
Low37 °F (Oct 21, 3:00 AM)45% (Oct 9, 4:00 PM)29.48 "Hg (Oct 19, 4:00 AM)
Average52 °F81%29.97 "Hg
* Reported Oct 9 8:00 AM — Oct 24 8:00 AM, Charlottetown, Weather by CustomWeather, © 2014

Note: Actual official high and low records may vary slightly from our data, if they occured in-between our weather recording intervals... More about our weather records

Advertising

Charlottetown weather history for previous 24 hours

 ConditionsComfort  
Time TempWeatherWind HumidityBarometerVisibility
8:00 AM
Oct 24
50 °FLow clouds.15 mph100%29.69 "Hg15 mi
7:00 AM50 °FSprinkles. Low clouds.13 mph100%29.70 "Hg15 mi
6:00 AM50 °FSprinkles. Mostly cloudy.22 mph94%29.70 "Hg12 mi
5:00 AM50 °FMostly cloudy.28 mph100%29.70 "Hg15 mi
4:00 AM50 °FSprinkles. Mostly cloudy.21 mph94%29.76 "Hg15 mi
3:00 AM50 °FSprinkles. Overcast.20 mph94%29.78 "Hg15 mi
2:00 AM50 °FSprinkles. Overcast.18 mph94%29.82 "Hg15 mi
1:00 AM50 °FSprinkles. Mostly cloudy.17 mph94%29.86 "Hg15 mi
12:00 AM50 °FSprinkles. Mostly cloudy.17 mph94%29.88 "Hg15 mi
11:00 PM
Oct 23
50 °FSprinkles. Mostly cloudy.17 mph88%29.91 "Hg15 mi
10:00 PM50 °FSprinkles. Overcast.16 mph94%29.94 "Hg15 mi
9:00 PM50 °FSprinkles. Overcast.15 mph94%29.97 "Hg15 mi
8:00 PM50 °FSprinkles. Overcast.13 mph94%29.99 "Hg15 mi
7:00 PM52 °FSprinkles. Overcast.14 mph88%30.00 "Hg15 mi
6:00 PM54 °FPartly sunny.13 mph77%30.01 "Hg15 mi
5:00 PM54 °FSprinkles. Partly sunny.15 mph82%30.02 "Hg15 mi
4:00 PM55 °FPartly sunny.12 mph72%30.06 "Hg15 mi
3:00 PM57 °FPartly sunny.13 mph63%30.08 "Hg15 mi
2:00 PM57 °FPartly sunny.14 mph63%30.10 "Hg15 mi
1:00 PM57 °FPartly sunny.15 mph63%30.13 "Hg15 mi
12:00 PM57 °FPartly sunny.15 mph63%30.15 "Hg15 mi
11:00 AM54 °FPartly sunny.14 mph72%30.17 "Hg15 mi
10:00 AM52 °FPartly sunny.16 mph77%30.18 "Hg15 mi
Weather by CustomWeather, © 2014

See weather overviewHow to use our weather pages